Akron, CO

3:51 PM MDT on April 24, 2017 (GMT -0600)
Akron-Washington County

Weather History for KAKO - December, 2014

Change the Weather History Date:

Monday, December 15, 2014

  Actual Average Record
Temperature  
Mean Temperature 20 °F 28 °F  
Max Temperature 28 °F 39 °F 64 °F (2002)
Min Temperature 11 °F 16 °F -10 °F (1940)
Degree Days  
Heating Degree Days 45    
Month to date heating degree days 411  
Cooling Degree Days 0    
Month to date cooling degree days 0  
Moisture  
Dew Point 24 °F    
Average Humidity 92    
Maximum Humidity 100    
Minimum Humidity 84    
Precipitation  
Precipitation 0.02 in 0.01 in 0.08 in (1967)
Month to date precipitation 0.20 0.23  
Year to date precipitation 18.31 16.57  
Sea Level Pressure  
Sea Level Pressure 30.00 in    
Wind  
Wind Speed 26 mph (NNW)    
Max Wind Speed 40 mph    
Max Gust Speed 45 mph    
Visibility 2 miles    
Events Fog , Snow    
T = Trace of Precipitation, MM = Missing Value Source: NWS Daily Summary

Daily Weather History Graph

Daily Weather History Graph

Search for Another Location

Airport or City:

Trip Planner

Search our weather history database for the weather conditions in past years. The results will help you decide how hot, cold, wet, or windy it might be!

Date:

Astronomy

Dec. 15, 2014 Rise Set
Actual Time 7:08 AM MST 4:28 PM MST
Civil Twilight 6:37 AM MST 4:58 PM MST
Nautical Twilight 6:03 AM MST 5:32 PM MST
Astronomical Twilight 5:30 AM MST 6:05 PM MST
Moon 12:28 AM MST (12/15) 12:29 PM MST (12/15)
Length of Visible Light 10h 21m
Length of Day
9h 19m
Last Quarter, 38% of the Moon is Illuminated
Dec 15
Last Quarter
Dec 21
New
Dec 28
First Quarter
Jan 4
Full
Jan 13
Last Quarter

Hourly Weather History & Observations

Time (MST) Temp. Windchill Dew Point Humidity Pressure Visibility Wind Dir Wind Speed Gust Speed Precip Events Conditions
12:01 AM 28.0 °F 14.3 °F 28.0 °F 100% 29.85 in 1.0 mi NNW 21.9 mph - 0.00 in Snow Light Snow
12:25 AM 28.0 °F 13.6 °F 27.0 °F 96% 29.85 in 0.8 mi NNW 24.2 mph - 0.00 in Snow Light Snow
12:49 AM 28.4 °F 13.3 °F 26.6 °F 93% 29.85 in 1.0 mi NNW 27.6 mph - 0.00 in   Overcast
12:53 AM 28.0 °F 13.0 °F 27.0 °F 96% 29.94 in 1.0 mi NNW 26.5 mph - 0.00 in   Overcast
12:57 AM 28.0 °F 13.6 °F 27.0 °F 96% 29.85 in 1.2 mi NNW 24.2 mph - N/A   Overcast
1:22 AM 28.0 °F 13.6 °F 27.0 °F 96% 29.86 in 1.2 mi NNW 24.2 mph - 0.02 in   Overcast
1:34 AM 28.0 °F 12.8 °F 27.0 °F 96% 29.87 in 1.8 mi NNW 27.6 mph - 0.02 in   Overcast
1:53 AM 28.0 °F 12.8 °F 27.0 °F 96% 29.95 in 1.8 mi NNW 27.6 mph - 0.02 in   Overcast
2:15 AM 28.0 °F 14.3 °F 27.0 °F 96% 29.88 in 1.2 mi NNW 21.9 mph - N/A   Overcast
2:23 AM 28.0 °F 16.1 °F 27.0 °F 96% 29.88 in 1.5 mi NNW 16.1 mph - N/A   Overcast
2:36 AM 27.0 °F 12.8 °F 27.0 °F 100% 29.88 in 1.2 mi NNW 21.9 mph - N/A   Overcast
2:53 AM 27.0 °F 12.2 °F 27.0 °F 100% 29.96 in 1.5 mi NNW 24.2 mph - N/A   Overcast
3:11 AM 27.0 °F 11.3 °F 26.1 °F 96% 29.88 in 1.8 mi NNW 27.6 mph 35.7 mph N/A   Overcast
3:29 AM 27.0 °F 12.2 °F 26.1 °F 96% 29.88 in 2.5 mi NNW 24.2 mph 35.7 mph N/A   Overcast
3:37 AM 27.0 °F 12.2 °F 26.1 °F 96% 29.87 in 5.0 mi NNW 24.2 mph - N/A   Overcast
3:53 AM 27.0 °F 12.8 °F 26.1 °F 96% 29.96 in 5.0 mi NNW 21.9 mph - N/A   Overcast
4:08 AM 27.0 °F 12.5 °F 27.0 °F 100% 29.87 in 4.0 mi NW 23.0 mph - N/A   Overcast
4:13 AM 27.0 °F 12.2 °F 26.1 °F 96% 29.87 in 4.0 mi NNW 24.2 mph - N/A   Overcast
4:29 AM 27.0 °F 11.6 °F 26.1 °F 96% 29.88 in 5.0 mi NNW 26.5 mph 32.2 mph N/A   Overcast
4:38 AM 27.0 °F 10.8 °F 26.1 °F 96% 29.88 in 3.0 mi NNW 29.9 mph 34.5 mph N/A   Overcast
4:42 AM 27.0 °F 11.3 °F 26.1 °F 96% 29.88 in 1.8 mi NNW 27.6 mph - N/A   Overcast
4:53 AM 27.0 °F 11.0 °F 26.1 °F 96% 29.97 in 1.2 mi NNW 28.8 mph 36.8 mph N/A   Overcast
5:12 AM 27.0 °F 11.3 °F 26.1 °F 96% 29.89 in 1.5 mi NNW 27.6 mph 35.7 mph N/A   Overcast
5:19 AM 27.0 °F 11.6 °F 26.1 °F 96% 29.89 in 1.2 mi NNW 26.5 mph - N/A   Overcast
5:29 AM 27.0 °F 11.3 °F 26.1 °F 96% 29.89 in 1.5 mi NNW 27.6 mph - N/A   Overcast
5:36 AM 27.0 °F 11.6 °F 26.1 °F 96% 29.89 in 1.2 mi NNW 26.5 mph 32.2 mph N/A   Overcast
5:53 AM 27.0 °F 11.6 °F 26.1 °F 96% 29.98 in 1.5 mi NNW 26.5 mph - N/A   Overcast
6:11 AM 27.0 °F 11.6 °F 26.1 °F 96% 29.90 in 1.2 mi NNW 26.5 mph - N/A   Overcast
6:22 AM 27.0 °F 11.3 °F 26.1 °F 96% 29.90 in 1.0 mi NNW 27.6 mph - N/A   Overcast
6:32 AM 27.0 °F 11.0 °F 26.1 °F 96% 29.90 in 1.0 mi NNW 28.8 mph 35.7 mph N/A   Overcast
6:53 AM 26.1 °F 9.1 °F 26.1 °F 100% 30.00 in 1.0 mi NNW 32.2 mph 39.1 mph N/A   Overcast
7:13 AM 26.1 °F 9.6 °F 26.1 °F 100% 29.91 in 1.0 mi NNW 29.9 mph - N/A   Overcast
7:20 AM 26.1 °F 9.6 °F 25.0 °F 96% 29.92 in 0.5 mi NNW 29.9 mph - N/A Fog Light Freezing Fog
7:29 AM 26.1 °F 9.8 °F 26.1 °F 100% 29.92 in 0.5 mi NNW 28.8 mph 35.7 mph N/A Fog Light Freezing Fog
7:53 AM 26.1 °F 8.4 °F 25.0 °F 96% 30.02 in 0.2 mi NNW 35.7 mph 43.7 mph N/A Fog Light Freezing Fog
8:13 AM 26.1 °F 10.4 °F 25.0 °F 96% 29.94 in 0.5 mi NNW 26.5 mph 36.8 mph N/A Fog Light Freezing Fog
8:29 AM 26.1 °F 9.3 °F 25.0 °F 96% 29.94 in 0.2 mi NNW 31.1 mph 38.0 mph N/A Fog Light Freezing Fog
8:41 AM 26.1 °F 9.3 °F 25.0 °F 96% 29.94 in 0.5 mi NNW 31.1 mph 38.0 mph N/A Fog Light Freezing Fog
8:48 AM 26.6 °F 10.8 °F 24.8 °F 93% 29.95 in 0.5 mi NNW 27.6 mph 36.8 mph N/A Fog Light Freezing Fog
8:53 AM 26.1 °F 9.3 °F 25.0 °F 96% 30.04 in 0.5 mi NNW 31.1 mph 39.1 mph N/A Fog Light Freezing Fog
9:53 AM 26.1 °F 10.1 °F 25.0 °F 96% 30.08 in 0.5 mi NNW 27.6 mph - N/A Fog Light Freezing Fog
10:23 AM 26.1 °F 8.4 °F 24.1 °F 92% 30.00 in 0.2 mi NNW 35.7 mph 41.4 mph N/A Fog Light Freezing Fog
10:41 AM 26.1 °F 8.6 °F 24.1 °F 92% 30.00 in 0.2 mi NNW 34.5 mph 42.6 mph N/A Fog Light Freezing Fog
10:53 AM 26.1 °F 9.1 °F 24.1 °F 92% 30.10 in 0.2 mi NNW 32.2 mph 42.6 mph N/A Fog Light Freezing Fog
11:50 AM 26.6 °F 9.8 °F 24.8 °F 93% 30.00 in 0.5 mi NNW 32.2 mph 38.0 mph N/A Fog Light Freezing Fog
11:53 AM 26.1 °F 9.1 °F 24.1 °F 92% 30.10 in 0.5 mi NNW 32.2 mph - N/A Fog Light Freezing Fog
12:38 PM 27.0 °F 10.3 °F 24.1 °F 89% 30.00 in 0.8 mi NNW 32.2 mph 40.3 mph N/A   Overcast
12:50 PM 26.6 °F 10.3 °F 24.8 °F 93% 30.00 in 1.0 mi NNW 29.9 mph 36.8 mph N/A   Overcast
12:53 PM 27.0 °F 11.0 °F 24.1 °F 89% 30.10 in 1.2 mi NNW 28.8 mph 36.8 mph N/A   Overcast
12:57 PM 27.0 °F 11.0 °F 24.1 °F 89% 30.01 in 1.5 mi NNW 28.8 mph - N/A   Overcast
1:04 PM 27.0 °F 10.5 °F 24.1 °F 89% 30.01 in 1.2 mi NNW 31.1 mph 38.0 mph N/A   Overcast
1:11 PM 27.0 °F 10.8 °F 24.1 °F 89% 30.01 in 1.2 mi NNW 29.9 mph 38.0 mph N/A   Overcast
1:22 PM 26.1 °F 9.1 °F 24.1 °F 92% 30.02 in 0.8 mi NNW 32.2 mph 42.6 mph N/A   Overcast
1:34 PM 26.1 °F 9.6 °F 24.1 °F 92% 30.02 in 1.2 mi NNW 29.9 mph 39.1 mph N/A   Overcast
1:43 PM 26.1 °F 9.1 °F 24.1 °F 92% 30.02 in 1.8 mi NNW 32.2 mph 36.8 mph N/A   Overcast
1:53 PM 26.1 °F 9.3 °F 24.1 °F 92% 30.13 in 1.2 mi NNW 31.1 mph 41.4 mph N/A   Overcast
2:15 PM 27.0 °F 10.5 °F 24.1 °F 89% 30.05 in 1.5 mi NNW 31.1 mph 39.1 mph N/A   Overcast
2:23 PM 27.0 °F 10.0 °F 24.1 °F 89% 30.05 in 1.2 mi NNW 33.4 mph 40.3 mph N/A   Overcast
2:36 PM 26.1 °F 9.6 °F 24.1 °F 92% 30.06 in 2.0 mi NNW 29.9 mph 36.8 mph N/A   Overcast
2:53 PM 26.1 °F 9.8 °F 24.1 °F 92% 30.17 in 3.0 mi NNW 28.8 mph 38.0 mph N/A   Overcast
3:53 PM 25.0 °F 9.9 °F 21.9 °F 88% 30.21 in 10.0 mi NNW 23.0 mph - N/A   Clear
4:53 PM 21.9 °F 7.8 °F 19.9 °F 92% 30.23 in 10.0 mi North 17.3 mph - N/A   Clear
5:53 PM 21.9 °F 7.3 °F 19.0 °F 89% 30.26 in 10.0 mi NNW 18.4 mph - N/A   Partly Cloudy
6:53 PM 21.9 °F 6.9 °F 18.0 °F 85% 30.29 in 9.0 mi NNW 19.6 mph - 0.00 in Snow Light Snow
7:53 PM 19.0 °F 3.2 °F 16.0 °F 88% 30.30 in 9.0 mi North 19.6 mph - 0.00 in Snow Light Snow
8:53 PM 18.0 °F 2.6 °F 15.1 °F 88% 30.29 in 9.0 mi North 17.3 mph - 0.00 in Snow Light Snow
9:53 PM 17.1 °F 1.5 °F 14.0 °F 88% 30.31 in 9.0 mi North 17.3 mph - 0.00 in Snow Light Snow
10:53 PM 12.9 °F 1.6 °F 10.9 °F 92% 30.37 in 9.0 mi WSW 8.1 mph - 0.00 in Snow Light Snow
11:53 PM 14.0 °F 3.9 °F 10.9 °F 88% 30.37 in 9.0 mi WSW 6.9 mph - 0.00 in Snow Light Snow